Powrót do katalogu

CZ-6A DEB

AktywnySSO
NORAD 56646·DEBRIS·🇨🇳 China

Wystrzelony Nov 11, 2022 z Taiyuan Satellite Launch Center

Loading…

Następne Przeloty (najbliższe 24 godziny)

TLE

ŚwieżeSource: Space-Track

Epoka: Sep 13, 2026, 09:54 UTC

1 56646U 22151AFW 26256.41319024  .00001082  00000-0  27516-3 0  9998
2 56646  98.6919 328.1447 0104856  46.6185 314.3682 14.49640402178843

Śledź CZ-6A DEB w czasie rzeczywistym z AllMySat

Download on the App Store